Miscellaneous Local Product
Issued by NWS North Platte, NE

Home | Current Version | Previous Version | Graphics & Text | Print | Product List | Glossary On
Versions: 1 2 3 4 5 6 7 8 9 10 11 12 13 14 15 16 17 18 19 20 21 22 23 24 25 26 27 28 29 30 31 32 33 34 35 36 37 38 39 40 41 42 43 44 45 46 47 48 49 50
000
AXUS43 KLBF 040810
MISLBF


WESTERN AND NORTH CENTRAL NEBRASKA HOURLY WEATHER ROUNDUP
NATIONAL WEATHER SERVICE NORTH PLATTE NE
300 AM CDT SAT JUL 04 2015

***STATIONS NOT REPORTING VARIABLES SUCH AS SKY/WEATHER OR
PRESSURE ARE PROVIDED BY THE NEBRASKA DEPARTMENT OF
ROADS...RAWS...AND APRS NETWORKS...AND ARE NOT UNDER
NATIONAL WEATHER SERVICE QUALITY CONTROL***

...OBSERVATIONS IN AND NEAR THE EASTERN PANHANDLE OF NEBRASKA...

CITY           SKY/WX    TMP DP  RH WIND       PRES   REMARKS
PINE RIDGE     MOCLDY    70  57  63 S16       29.95F
CHADRON        MOCLDY    69  57  65 SW6       29.95R
ALLIANCE       MOCLDY    66  60  81 S12       30.00S
SIDNEY         MOCLDY    66  59  78 S14       30.03F
WHITECLAY        N/A     65  57  75 SE8         N/A
CRESCENT LAKE    N/A     65  61  86 S6          N/A
BIG SPRINGS      N/A     68  60  76 S12         N/A
$$

...OBSERVATIONS IN NORTH CENTRAL NEBRASKA...

CITY           SKY/WX    TMP DP  RH WIND       PRES   REMARKS
VALENTINE      CLEAR     64  59  83 SW6       29.96F
THEDFORD       CLEAR     65  62  90 S7        30.01S
AINSWORTH      CLEAR     62  61  96 S7        29.98F
O`NEILL        CLEAR     63  62  97 S5        29.99F FOG
ORD            CLEAR     62  60  93 SE3       29.99F FOG
BROKEN BOW     CLEAR     61  58  90 SE5       30.00F
VALENTINE NWR    N/A     62  60  92 S7          N/A
SPRINGVIEW       N/A     65  61  87 CALM        N/A
BREWSTER         N/A     64  63  97 CALM        N/A
ROSE             N/A     75  74  99 S9          N/A
NEWPORT          N/A     65  64  94 S9          N/A
SARGENT          N/A     61  59  94 CALM        N/A
CHAMBERS         N/A     63  61  94 S7          N/A
EWING            N/A     61  59  94 CALM        N/A
$$

...OBSERVATIONS IN SOUTHWEST NEBRASKA AND FAR NORTHEAST COLORADO...

CITY           SKY/WX    TMP DP  RH WIND       PRES   REMARKS
WRAY           FAIR      67  58  71 E6        30.03F
HOLYOKE        FAIR      64  59  82 SE7       30.03F
IMPERIAL       PTCLDY    67  57  70 S10       30.02F
OGALLALA       PTCLDY    66  61  84 CALM      30.01F
NORTH PLATTE   CLEAR     66  59  78 SE5       30.02S
MCCOOK         PTCLDY    66  59  78 SE8       30.01F
LEXINGTON      PTCLDY    64  61  91 SE6       30.02S
PAXTON           N/A     65  61  88 SE3         N/A
GOTHENBURG       N/A     62  56  81 CALM        N/A
CALLAWAY         N/A     61  60  96 S5          N/A
$$

...NORTH PLATTE AREA...

CITY           SKY/WX    TMP DP  RH WIND       PRES   REMARKS
AIRPORT        CLEAR     66  59  78 SE5       30.02S
DOWNTOWN         N/A     67  60  79 MISG        N/A
HILLCREST        N/A     65  61  86 SE6         N/A
$$

...SOME WEATHER OBSERVATIONS FROM AROUND THE REGION...

CITY           SKY/WX    TMP DP  RH WIND       PRES   REMARKS
DENVER         CLEAR     67  53  61 SW10      30.05F
LARAMIE        PTCLDY    60  52  74 S14       30.14F
CHEYENNE       PTCLDY    64  54  69 W3        30.09F
SCOTTSBLUFF    MOCLDY    70  58  65 SE5       30.01R
RAPID CITY     MOCLDY    63  60  90 SE5       29.93F
PIERRE         CLEAR     65  62  90 SE7       29.90F
WINNER         FAIR      70  60  70 S12       29.93F
SIOUX FALLS    CLEAR     67  60  78 CALM      29.97S
OMAHA          CLEAR     62  56  80 CALM      29.99S
GRAND ISLAND   CLEAR     62  59  90 S6        30.01F
KANSAS CITY    CLEAR     66  57  72 E5        29.98F
WICHITA        CLEAR     69  62  78 E6        29.98S
HAYS           CLEAR     64  55  72 CALM      30.01S
LIBERAL        PTCLDY    70  63  78 SE6       30.04F
GOODLAND       PTCLDY    67  59  75 S12       30.04F
$$



USA.gov is the U.S. government's official web portal to all federal, state and local government web resources and services.